Theta_e
302 296 295 298 299 299 297 295 294 299 304 303 302 304 307 310 311 311 315 317 320 321 324 326 328 329 330 339 343 347 346 352 346 337 336 336 338 343 347 349 355 353 353 352
297 294 298 299 298 296 295 293 294 298 301 302 302 302 306 309 310 312 313 315 317 319 321 323 326 329 334 337 342 344 347 350 352 341 344 339 344 342 346 349 354 353 352 353
293 296 299 297 295 294 294 293 293 293 298 301 300 299 302 307 310 311 313 315 316 318 319 321 323 329 330 334 339 341 346 350 353 352 346 350 349 350 345 349 350 350 350 351
294 298 296 294 293 295 291 297 295 294 292 289 299 290 300 304 306 309 311 313 315 317 318 320 323 326 330 330 332 339 344 349 351 357 345 352 344 342 346 347 348 348 349 347
292 294 294 293 294 297 293 297 295 295 292 292 293 291 296 303 302 306 310 312 314 315 317 317 319 322 323 327 331 337 342 347 350 352 350 343 350 345 346 346 350 347 347 346
296 300 298 296 298 299 298 295 295 294 292 285 291 291 293 298 302 306 309 311 313 315 316 318 319 321 321 323 325 333 339 345 348 349 354 357 356 355 346 348 342 342 344 347
294 295 297 299 295 299 296 291 284 282 284 283 292 290 294 301 305 307 307 310 313 314 315 316 317 318 320 323 324 327 333 337 344 346 349 352 359 362 359 347 344 344 344 345
287 285 293 297 295 293 293 292 284 277 280 283 292 287 292 303 307 309 309 310 312 313 315 316 318 320 322 324 325 328 333 339 344 346 348 353 357 349 351 351 349 346 346 347
288 287 296 297 298 297 293 291 294 285 288 283 287 292 299 301 304 306 307 310 311 314 317 320 323 325 327 325 327 332 338 342 346 347 350 352 352 357 351 359 358 349 350 347
292 286 293 296 298 298 296 297 287 288 280 278 286 289 290 296 299 304 306 308 311 314 318 323 325 327 331 330 335 340 344 345 347 349 350 350 354 355 353 353 353 352 351 345
295 291 290 294 292 292 292 291 291 291 288 282 281 287 298 300 301 304 307 309 311 316 324 328 332 335 336 336 338 343 345 346 347 348 351 350 348 349 349 346 344 345 345 343
296 292 287 289 296 298 296 293 292 284 283 289 287 287 301 300 307 306 308 309 311 314 327 329 329 333 336 338 341 343 345 345 346 347 346 346 346 344 345 343 343 343 342 341
296 290 284 286 291 294 291 294 293 293 291 287 283 286 301 304 306 307 307 309 310 312 323 329 331 337 337 339 341 341 343 343 344 345 343 343 343 342 343 342 342 340 339 337
298 292 286 284 286 288 286 290 293 292 287 288 287 289 293 295 299 305 307 309 309 311 318 330 330 335 335 336 337 339 340 341 342 340 340 339 340 340 340 339 339 338 337 335
294 288 291 291 292 291 291 291 291 289 291 288 290 289 293 297 300 303 306 307 307 309 314 329 328 334 333 335 336 337 338 339 339 337 337 337 338 338 337 337 337 336 336 336
296 288 291 289 292 292 290 292 292 292 292 292 291 291 297 300 302 303 304 305 305 308 312 326 330 329 331 334 334 336 336 335 336 334 333 334 334 335 336 337 336 335 336 336
290 289 288 284 290 291 286 291 292 292 294 293 290 294 299 299 301 303 305 305 306 308 312 318 330 329 333 333 333 334 334 333 332 331 331 332 333 333 333 334 332 335 336 338
289 289 288 285 288 279 291 297 296 295 296 298 298 299 301 302 304 305 306 307 307 309 313 318 331 331 334 335 334 335 332 330 330 330 331 332 331 331 333 332 333 337 337 338
295 289 286 284 284 287 290 293 293 290 293 299 298 300 301 303 305 306 307 309 309 313 322 323 334 335 336 333 334 332 329 329 329 329 330 329 331 330 329 331 335 335 336 338
295 292 286 286 281 279 289 295 296 297 288 299 299 300 303 306 300 302 309 310 319 321 321 330 335 334 334 333 334 330 327 328 328 330 329 330 331 330 329 333 334 335 336 336
291 289 285 285 283 288 294 295 295 285 290 299 298 302 304 303 308 312 315 316 318 322 322 332 334 334 333 335 333 327 328 328 331 331 331 332 331 330 331 334 336 336 335 335
289 286 287 287 285 283 299 293 287 294 298 296 298 302 303 307 310 312 314 315 318 321 321 332 330 333 334 334 331 327 328 332 332 331 332 331 333 330 331 335 335 335 336 335
289 292 286 286 289 299 299 296 299 298 295 297 297 301 304 307 308 310 313 316 318 320 324 332 332 330 333 333 329 328 331 333 331 331 331 331 332 332 333 333 334 334 335 336
297 299 293 290 295 296 298 299 299 299 298 300 302 304 308 306 309 312 315 317 320 322 330 332 329 330 331 330 327 330 333 332 330 330 331 330 331 330 334 335 338 337 337 335
297 298 295 293 296 296 297 298 300 300 300 301 307 309 311 309 312 315 317 318 321 327 328 330 329 330 329 326 328 331 333 332 329 331 330 331 331 333 334 330 329 336 323 329
299 297 293 290 296 294 296 300 301 298 297 302 303 307 313 314 315 317 319 324 326 325 329 330 330 329 326 326 329 331 332 334 332 329 330 329 330 331 331 331 328 298 299 297
Wind_Speed
10 12 14 16 17 20 22 25 31 30 24 25 30 31 32 30 28 28 26 22 29 29 23 21 14 12 12 12 12 11 13 12 10 11 10 11 11 10 9 10 11 12 12 15
14 16 15 15 18 23 22 25 28 26 28 27 24 27 30 29 27 27 27 28 27 22 20 20 19 16 14 14 13 14 14 14 12 10 9 10 7 9 10 9 10 11 13 13
15 17 19 19 20 20 20 22 23 27 23 26 28 29 31 29 29 27 27 27 27 26 24 20 19 18 16 15 14 15 15 14 13 13 8 6 7 7 8 8 9 10 13 11
15 16 16 15 19 18 22 20 21 21 21 23 25 24 29 25 29 27 27 23 21 22 21 22 22 21 18 17 17 16 15 14 13 12 10 11 9 9 7 7 10 9 9 10
17 19 20 22 22 21 22 19 23 23 22 25 29 24 22 25 26 26 25 27 29 29 28 27 25 22 21 20 17 14 14 14 14 12 13 11 11 9 8 10 11 8 8 10
17 14 22 15 18 26 21 21 25 24 20 22 27 27 25 24 25 22 18 20 19 22 22 22 20 21 17 16 16 12 12 13 13 13 14 13 12 10 11 10 10 8 9 9
16 14 4 5 14 17 24 21 15 18 19 19 23 29 21 23 26 27 15 17 23 11 15 18 19 15 17 15 16 12 12 11 13 14 14 14 12 10 12 14 12 12 10 10
9 16 11 2 11 19 16 22 14 18 16 19 15 23 25 25 26 10 10 21 12 12 14 14 15 13 11 13 15 13 13 12 13 14 15 13 13 10 11 14 12 11 10 11
13 12 24 19 8 16 19 16 19 18 24 17 15 25 27 30 23 20 18 15 13 5 10 12 15 14 12 11 11 11 11 13 14 15 13 13 14 13 12 11 12 11 11 9
15 21 17 13 9 13 15 11 10 13 21 22 20 18 18 31 29 20 17 4 2 7 13 7 10 7 5 9 9 11 12 14 14 15 14 14 13 11 12 11 9 10 10 11
19 16 18 20 14 16 12 16 8 10 15 13 16 13 15 16 30 21 8 5 4 7 7 7 8 5 7 5 11 12 14 16 15 15 14 12 11 12 13 11 12 11 11 11
19 8 15 21 23 12 17 15 11 5 10 19 15 17 21 32 29 27 11 3 8 11 9 1 3 7 12 14 14 15 15 16 16 14 12 12 14 15 13 13 12 11 10 9
9 7 11 15 7 11 12 20 10 7 11 21 12 11 20 9 16 12 7 6 14 13 10 6 3 8 11 14 15 16 17 16 16 17 16 16 15 14 13 12 11 10 10 9
11 15 16 16 22 7 10 17 15 15 13 19 16 19 3 26 24 6 6 8 12 15 9 9 2 2 7 9 14 16 16 16 16 16 16 15 14 13 12 11 11 10 10 10
4 9 19 21 22 19 23 20 15 18 20 22 21 19 14 12 20 29 16 10 14 14 10 10 3 3 4 7 10 14 17 16 16 16 15 14 13 12 12 12 11 11 10 7
4 8 15 21 21 21 22 21 18 19 21 27 24 23 17 16 19 18 18 16 14 13 10 8 10 2 2 6 13 16 16 16 15 14 14 14 13 13 12 11 9 11 8 5
6 7 12 18 20 17 18 19 18 18 21 24 25 21 19 17 15 15 15 14 13 12 11 3 12 6 5 7 10 16 16 15 14 14 14 14 13 13 8 10 11 9 6 6
4 10 9 11 13 12 10 11 15 16 18 14 21 17 19 21 16 18 17 15 12 11 11 4 13 9 8 7 13 16 15 15 14 14 14 13 11 13 13 12 9 6 7 8
8 2 5 5 7 15 22 13 9 9 20 19 22 26 21 24 22 17 12 14 11 14 9 4 15 17 11 9 15 16 15 14 14 14 13 11 11 10 9 11 9 9 8 7
7 7 4 5 6 5 2 9 7 8 18 9 10 12 14 14 13 6 11 8 3 8 11 10 17 16 12 11 17 15 14 14 14 13 12 8 13 14 9 7 8 8 8 8
7 3 8 11 9 8 9 9 8 7 6 15 14 14 16 13 11 21 9 7 10 9 6 8 17 17 15 17 16 14 14 14 15 13 11 12 15 11 10 9 6 9 7 5
4 3 3 4 6 1 13 6 4 10 18 16 17 18 17 18 16 17 15 11 13 5 12 13 13 15 17 17 15 15 14 16 15 13 14 13 8 9 10 9 9 8 7 8
4 4 3 3 6 18 14 12 14 13 16 19 17 19 18 19 15 17 16 13 5 8 15 13 11 14 17 17 15 15 14 15 10 10 13 10 6 6 8 9 6 6 7 6
10 4 4 3 5 13 15 9 14 8 14 18 22 22 20 19 17 19 11 10 5 13 10 13 13 19 17 16 15 15 16 14 11 11 10 8 7 7 8 8 6 6 6 5
12 10 9 11 14 14 7 11 13 13 15 19 14 14 14 14 18 11 11 4 10 9 8 8 15 17 17 16 16 16 16 16 8 14 7 8 8 8 10 8 3 4 6 1
10 10 5 4 8 10 10 15 13 15 18 18 13 13 10 9 11 8 10 9 3 5 12 5 17 18 17 17 17 16 14 20 14 10 7 6 9 8 10 9 9 15 11 12
Wind_Direction
285 286 259 277 283 280 281 274 277 278 275 244 252 258 246 240 236 249 255 251 229 244 250 250 256 259 254 242 228 237 239 244 250 243 237 240 235 229 224 223 209 200 191 199
275 253 262 260 269 278 279 279 273 275 271 279 273 267 265 260 246 247 245 246 253 249 243 248 249 247 240 243 235 228 234 236 236 227 237 250 252 233 214 208 191 194 192 195
295 300 308 289 274 270 271 266 274 282 287 274 266 256 264 265 257 256 252 251 253 253 253 252 257 256 251 246 237 229 227 231 232 227 221 222 251 258 205 193 177 196 191 190
290 290 270 274 269 269 271 269 273 276 268 260 255 261 249 245 249 251 251 246 249 255 259 254 249 251 247 246 248 241 230 221 220 206 228 213 216 208 207 198 202 177 178 168
293 293 285 278 276 279 276 277 275 267 263 267 253 260 254 245 244 240 240 241 241 241 242 247 248 252 251 246 238 224 226 214 214 195 216 216 221 199 182 203 135 152 158 168
277 337 287 311 330 298 289 282 271 262 258 251 252 249 251 246 249 259 258 258 256 247 245 245 253 250 248 248 243 225 217 215 205 211 199 226 191 218 170 154 161 168 173 179
314 306 238 248 321 292 255 258 260 250 241 253 249 251 246 256 243 249 263 264 241 262 262 248 238 238 238 231 231 210 207 212 210 201 195 197 194 191 151 152 167 162 173 173
336 307 325 318 289 301 282 251 244 262 260 257 320 258 245 248 255 256 270 281 275 256 254 253 245 245 249 235 203 206 194 199 188 188 186 182 174 175 160 191 148 167 168 167
304 307 318 299 280 296 276 251 254 270 281 269 271 271 275 240 249 250 252 242 219 276 297 274 258 250 238 230 199 190 200 181 175 174 171 167 172 165 168 148 150 164 161 137
294 294 303 295 287 246 252 282 260 237 261 262 265 262 259 202 231 217 229 161 281 266 261 276 259 238 242 210 157 192 167 161 163 157 157 161 157 143 127 144 153 135 116 147
301 296 290 291 262 278 247 245 184 263 230 273 269 276 353 237 202 217 199 97 319 306 22 300 344 338 263 163 179 167 159 156 153 154 149 129 125 131 142 137 137 130 142 149
306 288 286 279 283 216 263 266 314 234 290 264 278 285 309 298 182 198 107 72 332 329 82 129 205 210 198 188 150 158 151 151 152 132 132 132 139 137 137 137 137 142 151 163
1 284 304 291 245 32 354 311 281 284 270 263 271 278 316 324 103 113 118 18 335 334 54 94 164 203 176 151 149 146 153 146 141 141 138 137 136 139 137 137 142 148 151 158
294 260 257 271 290 233 232 231 254 275 262 276 260 258 295 308 310 185 62 37 327 315 7 101 197 340 324 142 142 152 140 141 136 137 137 137 139 139 137 139 146 150 158 164
207 266 273 272 277 278 277 283 270 266 270 267 285 284 282 238 282 302 330 318 317 311 343 117 127 4 325 143 142 140 139 138 140 137 138 137 136 138 142 148 153 157 161 121
240 275 289 288 279 267 263 262 257 259 268 273 274 277 276 262 265 277 283 293 296 307 325 103 140 212 296 131 159 139 138 139 137 137 138 143 146 146 147 151 149 160 104 125
261 282 288 280 276 286 269 271 266 261 262 261 266 272 274 277 279 283 291 282 281 285 296 5 160 169 205 192 132 144 138 140 142 142 145 147 149 134 144 157 154 136 156 143
229 237 243 267 300 264 284 356 351 327 312 290 286 300 310 302 286 271 271 275 269 280 283 351 170 170 202 211 159 139 146 149 146 149 148 149 147 148 166 157 136 115 147 129
195 231 262 257 241 279 291 326 334 306 280 293 296 296 283 276 277 269 261 271 274 262 263 223 184 162 183 193 154 148 153 155 154 154 152 122 166 115 153 128 137 150 146 140
165 206 255 283 262 274 17 71 6 299 271 33 351 327 316 302 273 254 247 228 314 339 335 303 173 153 174 200 148 156 159 159 164 133 110 164 141 136 151 150 162 155 149 153
305 223 232 249 252 265 49 357 333 237 351 342 326 297 290 286 301 324 335 320 303 304 284 259 164 164 189 158 150 167 160 174 117 127 147 189 120 145 170 151 148 165 161 169
268 289 306 290 266 358 344 351 236 320 310 308 302 292 296 293 295 301 295 285 281 349 291 185 171 188 161 149 158 160 174 126 131 157 183 122 135 169 145 144 158 151 152 153
300 203 263 207 290 302 315 294 290 277 273 284 281 281 277 276 282 275 280 285 325 276 280 186 202 140 152 155 171 160 151 132 146 194 125 116 143 126 132 148 157 152 170 169
309 338 239 294 261 314 312 308 293 304 300 291 275 269 258 258 266 273 277 279 236 264 190 186 156 159 152 161 166 169 142 138 164 131 121 137 136 135 150 149 181 161 179 176
288 297 286 270 288 321 281 284 321 320 312 309 309 286 248 234 252 255 274 264 267 242 198 204 168 150 153 164 163 169 151 138 193 117 145 146 140 149 116 67 28 128 42 105
265 354 316 297 336 286 323 344 352 335 321 318 330 315 294 270 269 291 292 249 228 238 194 209 149 151 158 162 165 166 162 154 148 128 163 166 146 177 140 133 106 51 68 67